RYS2402 EPWA-LIPY

Flight info

Callsign RYS2402
Flight time 1h 30m
Altitude 38000
Route EVINA DCT NAVUR DCT BAVOK DCT MIKOV DCT KLAGY DCT ARMIX DCT BAXON DCT LANLI
Aircraft B737/M-SDE2E3FGHIRWXY/LB1

Departure

Time 2026-04-18 09:03
Airport Warsaw Chopin Airport (EPWA)

Arrival

Time 2026-04-18 10:34
Airport Marche Airport (LIPY)
Time Latitude Longitude Altitude Speed Heading
2026-04-18 08:45 52.16913 20.97222 338 ft 0 kts 76°
2026-04-18 08:56 52.16913 20.97221 338 ft 0 kts 76°
2026-04-18 08:56 52.16910 20.97196 332 ft 2 kts 78°
2026-04-18 08:56 52.16907 20.97171 337 ft 2 kts 81°
2026-04-18 08:56 52.16905 20.97144 333 ft 2 kts 85°
2026-04-18 08:57 52.16905 20.97092 334 ft 2 kts 101°
2026-04-18 08:57 52.16910 20.97067 332 ft 2 kts 121°
2026-04-18 08:57 52.16921 20.97047 333 ft 2 kts 148°
2026-04-18 08:58 52.16928 20.97041 334 ft 0 kts 154°
2026-04-18 08:59 52.16920 20.97046 333 ft 3 kts 154°
2026-04-18 08:59 52.16885 20.97078 334 ft 9 kts 150°
2026-04-18 09:00 52.16813 20.97141 336 ft 15 kts 152°
2026-04-18 09:00 52.16707 20.97234 336 ft 20 kts 151°
2026-04-18 09:00 52.16602 20.97327 333 ft 14 kts 149°
2026-04-18 09:00 52.16545 20.97479 334 ft 18 kts 113°
2026-04-18 09:01 52.16488 20.97693 338 ft 22 kts 116°
2026-04-18 09:01 52.16434 20.97809 337 ft 10 kts 170°
2026-04-18 09:01 52.16356 20.97762 338 ft 15 kts 207°
2026-04-18 09:01 52.16302 20.97703 335 ft 5 kts 248°
2026-04-18 09:02 52.16309 20.97657 337 ft 0 kts 296°
2026-04-18 09:03 52.16363 20.97461 335 ft 56 kts 293°
2026-04-18 09:03 52.16653 20.96451 347 ft 137 kts 296°
2026-04-18 09:03 52.17132 20.94829 759 ft 169 kts 297°
2026-04-18 09:03 52.17629 20.93061 1835 ft 172 kts 296°
2026-04-18 09:04 52.18115 20.91192 2623 ft 194 kts 294°
2026-04-18 09:04 52.18275 20.88837 2974 ft 231 kts 258°
2026-04-18 09:04 52.17824 20.86216 3578 ft 255 kts 257°
2026-04-18 09:04 52.17387 20.83375 4465 ft 263 kts 259°
2026-04-18 09:05 52.16973 20.80466 5635 ft 265 kts 259°
2026-04-18 09:05 52.16566 20.77492 6648 ft 273 kts 260°
2026-04-18 09:05 52.16154 20.74448 7615 ft 278 kts 261°
2026-04-18 09:05 52.15559 20.71414 8547 ft 288 kts 241°
2026-04-18 09:06 52.14216 20.69017 9528 ft 295 kts 221°
2026-04-18 09:06 52.12570 20.66892 10389 ft 304 kts 219°
2026-04-18 09:06 52.11195 20.65188 10669 ft 326 kts 219°
2026-04-18 09:06 52.09492 20.63088 10880 ft 351 kts 218°
2026-04-18 09:07 52.07502 20.60624 11509 ft 363 kts 219°
2026-04-18 09:07 52.05486 20.58111 12412 ft 367 kts 219°
2026-04-18 09:07 52.03454 20.55564 13310 ft 371 kts 219°
2026-04-18 09:07 52.01393 20.52971 14199 ft 375 kts 219°
2026-04-18 09:08 51.99341 20.50387 14976 ft 380 kts 219°
2026-04-18 09:08 51.97429 20.47983 15719 ft 383 kts 219°
2026-04-18 09:08 51.95561 20.45736 16413 ft 388 kts 213°
2026-04-18 09:08 51.93023 20.44123 17149 ft 396 kts 191°
2026-04-18 09:09 51.90267 20.43591 17942 ft 401 kts 185°
2026-04-18 09:09 51.87506 20.43216 18665 ft 406 kts 185°
2026-04-18 09:09 51.84671 20.42852 19293 ft 411 kts 185°
2026-04-18 09:09 51.81798 20.42466 19932 ft 416 kts 185°
2026-04-18 09:10 51.78892 20.42052 20565 ft 421 kts 186°
2026-04-18 09:10 51.75961 20.41616 21195 ft 425 kts 186°
2026-04-18 09:10 51.72992 20.41165 21826 ft 430 kts 186°
2026-04-18 09:10 51.70036 20.40713 22434 ft 435 kts 186°
2026-04-18 09:11 51.67001 20.40252 23023 ft 439 kts 186°
2026-04-18 09:11 51.63940 20.39788 23612 ft 444 kts 186°
2026-04-18 09:11 51.60839 20.39318 24117 ft 449 kts 187°
2026-04-18 09:11 51.57697 20.38843 24584 ft 454 kts 187°
2026-04-18 09:12 51.54583 20.38373 25041 ft 458 kts 187°
2026-04-18 09:12 51.51386 20.37891 25492 ft 462 kts 187°
2026-04-18 09:12 51.48165 20.37406 25943 ft 467 kts 187°
2026-04-18 09:12 51.44908 20.36916 26364 ft 471 kts 186°
2026-04-18 09:13 51.41623 20.36412 26787 ft 475 kts 188°
2026-04-18 09:13 51.38422 20.35126 27159 ft 475 kts 206°
2026-04-18 09:13 51.35593 20.32458 27609 ft 471 kts 220°
2026-04-18 09:13 51.32982 20.29283 28063 ft 473 kts 222°
2026-04-18 09:14 51.30379 20.26039 28440 ft 477 kts 222°
2026-04-18 09:14 51.27744 20.22764 28813 ft 482 kts 222°
2026-04-18 09:14 51.25069 20.19479 29204 ft 485 kts 222°
2026-04-18 09:14 51.22404 20.16249 29553 ft 489 kts 221°
2026-04-18 09:15 51.19671 20.12966 29906 ft 493 kts 221°
2026-04-18 09:15 51.16922 20.09681 30278 ft 496 kts 221°
2026-04-18 09:15 51.14148 20.06375 30574 ft 498 kts 221°
2026-04-18 09:15 51.11369 20.03067 30922 ft 500 kts 221°
2026-04-18 09:16 51.08584 19.99754 31352 ft 498 kts 221°
2026-04-18 09:16 51.05805 19.96449 31795 ft 497 kts 221°
2026-04-18 09:16 51.03034 19.93158 32165 ft 497 kts 221°
2026-04-18 09:16 51.00379 19.89670 32514 ft 492 kts 230°
2026-04-18 09:17 50.98072 19.85786 32895 ft 488 kts 233°
2026-04-18 09:17 50.95813 19.81784 33308 ft 486 kts 234°
2026-04-18 09:17 50.93572 19.77767 33670 ft 486 kts 234°
2026-04-18 09:17 50.91328 19.73756 34014 ft 486 kts 234°
2026-04-18 09:18 50.89226 19.70027 34327 ft 486 kts 234°
2026-04-18 09:18 50.86962 19.66047 34634 ft 485 kts 234°
2026-04-18 09:18 50.84700 19.62097 34971 ft 484 kts 233°
2026-04-18 09:18 50.82442 19.58176 35385 ft 479 kts 233°
2026-04-18 09:19 50.80211 19.54315 35879 ft 473 kts 233°
2026-04-18 09:19 50.77987 19.50470 36157 ft 473 kts 233°
2026-04-18 09:19 50.75765 19.46630 36318 ft 475 kts 233°
2026-04-18 09:19 50.73556 19.42813 36526 ft 476 kts 233°
2026-04-18 09:20 50.71290 19.38906 36824 ft 475 kts 233°
2026-04-18 09:20 50.69092 19.35126 37144 ft 473 kts 233°
2026-04-18 09:20 50.66868 19.31306 37426 ft 472 kts 233°
2026-04-18 09:20 50.64642 19.27488 37654 ft 472 kts 233°
2026-04-18 09:21 50.62416 19.23673 37866 ft 472 kts 233°
2026-04-18 09:21 50.60192 19.19868 38106 ft 472 kts 233°
2026-04-18 09:21 50.57963 19.16060 38224 ft 474 kts 233°
2026-04-18 09:21 50.55716 19.12223 38211 ft 476 kts 233°
2026-04-18 09:22 50.51684 19.05363 38200 ft 474 kts 233°
2026-04-18 09:22 50.47261 18.97868 38192 ft 469 kts 233°
2026-04-18 09:23 50.42827 18.90365 38206 ft 466 kts 233°
2026-04-18 09:23 50.38414 18.82918 38208 ft 465 kts 233°
2026-04-18 09:24 50.34011 18.75509 38205 ft 464 kts 232°
2026-04-18 09:24 50.29634 18.68168 38207 ft 464 kts 232°
2026-04-18 09:25 50.25357 18.61014 38213 ft 465 kts 232°
2026-04-18 09:25 50.20925 18.53622 38222 ft 467 kts 232°
2026-04-18 09:26 50.16548 18.46343 38218 ft 468 kts 232°
2026-04-18 09:26 50.12079 18.38933 38215 ft 470 kts 232°
2026-04-18 09:27 50.07654 18.31618 38214 ft 470 kts 232°
2026-04-18 09:27 50.03154 18.24195 38216 ft 471 kts 232°
2026-04-18 09:28 49.98543 18.16909 38216 ft 474 kts 227°
2026-04-18 09:28 49.93547 18.10229 38220 ft 476 kts 225°
2026-04-18 09:29 49.88459 18.03647 38224 ft 475 kts 225°
2026-04-18 09:29 49.83433 17.97076 38228 ft 474 kts 225°
2026-04-18 09:30 49.78469 17.90528 38231 ft 473 kts 225°
2026-04-18 09:30 49.73460 17.83919 38229 ft 473 kts 225°
2026-04-18 09:31 49.68449 17.77325 38214 ft 472 kts 225°
2026-04-18 09:31 49.63438 17.70754 38205 ft 472 kts 225°
2026-04-18 09:32 49.58459 17.64245 38222 ft 471 kts 225°
2026-04-18 09:32 49.53602 17.57913 38208 ft 471 kts 225°
2026-04-18 09:33 49.48621 17.51436 38214 ft 471 kts 225°
2026-04-18 09:33 49.43604 17.44931 38216 ft 471 kts 225°
2026-04-18 09:34 49.38579 17.38433 38212 ft 472 kts 225°
2026-04-18 09:34 49.33556 17.31956 38203 ft 472 kts 225°
2026-04-18 09:35 49.29114 17.26244 38212 ft 473 kts 225°
2026-04-18 09:35 49.24127 17.19845 38214 ft 474 kts 224°
2026-04-18 09:36 49.19321 17.13695 38220 ft 475 kts 224°
2026-04-18 09:36 49.14233 17.07203 38222 ft 475 kts 224°
2026-04-18 09:37 49.09179 17.00773 38220 ft 476 kts 224°
2026-04-18 09:37 49.04092 16.94319 38217 ft 474 kts 224°
2026-04-18 09:38 48.99052 16.87940 38215 ft 472 kts 224°
2026-04-18 09:38 48.93991 16.81553 38207 ft 471 kts 224°
2026-04-18 09:39 48.89808 16.76285 38207 ft 469 kts 224°
2026-04-18 09:39 48.84782 16.69970 38214 ft 468 kts 224°
2026-04-18 09:40 48.79766 16.63687 38217 ft 467 kts 223°
2026-04-18 09:40 48.74346 16.58259 38226 ft 471 kts 213°
2026-04-18 09:41 48.68587 16.53476 38227 ft 472 kts 212°
2026-04-18 09:41 48.62802 16.48697 38225 ft 473 kts 212°
2026-04-18 09:42 48.57048 16.43869 38226 ft 473 kts 213°
2026-04-18 09:42 48.51282 16.38999 38221 ft 474 kts 213°
2026-04-18 09:43 48.45554 16.34163 38225 ft 475 kts 213°
2026-04-18 09:43 48.39767 16.29293 38218 ft 476 kts 213°
2026-04-18 09:44 48.33977 16.24436 38224 ft 477 kts 212°
2026-04-18 09:44 48.28210 16.19612 38218 ft 477 kts 212°
2026-04-18 09:45 48.22389 16.14756 38216 ft 478 kts 212°
2026-04-18 09:45 48.16564 16.09908 38203 ft 478 kts 212°
2026-04-18 09:46 48.10802 16.05126 38208 ft 477 kts 212°
2026-04-18 09:46 48.04992 16.00317 38214 ft 477 kts 212°
2026-04-18 09:47 47.99184 15.95521 38228 ft 476 kts 212°
2026-04-18 09:47 47.93373 15.90734 38201 ft 477 kts 212°
2026-04-18 09:48 47.87552 15.85953 38217 ft 477 kts 212°
2026-04-18 09:48 47.81774 15.81219 38205 ft 476 kts 212°
2026-04-18 09:49 47.75964 15.76471 38221 ft 476 kts 212°
2026-04-18 09:49 47.70171 15.71750 38193 ft 474 kts 212°
2026-04-18 09:50 47.64393 15.67055 38203 ft 471 kts 212°
2026-04-18 09:50 47.58649 15.62394 38196 ft 470 kts 212°
2026-04-18 09:51 47.52917 15.57756 38199 ft 469 kts 212°
2026-04-18 09:51 47.47185 15.53130 38192 ft 469 kts 212°
2026-04-18 09:52 47.41448 15.48512 38194 ft 469 kts 212°
2026-04-18 09:52 47.35747 15.43935 38175 ft 470 kts 211°
2026-04-18 09:53 47.29998 15.39331 38205 ft 470 kts 212°
2026-04-18 09:53 47.24222 15.34716 38182 ft 472 kts 212°
2026-04-18 09:54 47.18446 15.30112 38175 ft 472 kts 211°
2026-04-18 09:54 47.12716 15.25558 38191 ft 471 kts 211°
2026-04-18 09:55 47.06955 15.20990 38198 ft 471 kts 211°
2026-04-18 09:55 47.01190 15.16429 38190 ft 472 kts 211°
2026-04-18 09:56 46.95399 15.11859 38188 ft 472 kts 211°
2026-04-18 09:56 46.89592 15.07288 38179 ft 473 kts 211°
2026-04-18 09:57 46.83796 15.02738 38179 ft 473 kts 211°
2026-04-18 09:57 46.78038 14.98227 38176 ft 472 kts 211°
2026-04-18 09:58 46.72243 14.93700 38196 ft 471 kts 211°
2026-04-18 09:58 46.66459 14.89191 38188 ft 472 kts 211°
2026-04-18 09:59 46.60661 14.84682 38170 ft 473 kts 211°
2026-04-18 10:00 46.51965 14.77952 38176 ft 474 kts 209°
2026-04-18 10:00 46.45796 14.74449 38166 ft 478 kts 201°
2026-04-18 10:01 46.39474 14.71428 38176 ft 477 kts 200°
2026-04-18 10:01 46.33177 14.68392 38176 ft 477 kts 201°
2026-04-18 10:02 46.26936 14.65316 38184 ft 476 kts 201°
2026-04-18 10:02 46.20667 14.62205 38175 ft 476 kts 201°
2026-04-18 10:03 46.14402 14.59101 38182 ft 475 kts 201°
2026-04-18 10:03 46.08151 14.56015 38181 ft 474 kts 201°
2026-04-18 10:04 46.01944 14.52959 38171 ft 474 kts 201°
2026-04-18 10:04 45.95704 14.49895 38176 ft 474 kts 201°
2026-04-18 10:05 45.89453 14.46833 38174 ft 474 kts 201°
2026-04-18 10:05 45.83200 14.43777 38173 ft 474 kts 201°
2026-04-18 10:06 45.76979 14.40744 38158 ft 474 kts 201°
2026-04-18 10:06 45.70722 14.37700 38174 ft 474 kts 201°
2026-04-18 10:07 45.65519 14.35174 38157 ft 475 kts 201°
2026-04-18 10:07 45.60702 14.32840 38153 ft 475 kts 200°
2026-04-18 10:08 45.54477 14.29829 38156 ft 476 kts 201°
2026-04-18 10:08 45.48215 14.26755 38151 ft 475 kts 204°
2026-04-18 10:09 45.42345 14.22490 38155 ft 473 kts 211°
2026-04-18 10:09 45.36586 14.17952 38152 ft 473 kts 212°
2026-04-18 10:10 45.30799 14.13442 38150 ft 474 kts 211°
2026-04-18 10:10 45.24991 14.08981 38030 ft 477 kts 211°
2026-04-18 10:10 45.22079 14.06756 37425 ft 482 kts 211°
2026-04-18 10:11 45.19129 14.04507 36833 ft 479 kts 211°
2026-04-18 10:11 45.16197 14.02277 36187 ft 478 kts 211°
2026-04-18 10:11 45.13262 14.00046 35486 ft 478 kts 211°
2026-04-18 10:11 45.10332 13.97819 34760 ft 478 kts 211°
2026-04-18 10:12 45.07394 13.95589 34002 ft 479 kts 211°
2026-04-18 10:12 45.04480 13.93378 33148 ft 481 kts 211°
2026-04-18 10:12 45.01539 13.91151 32565 ft 476 kts 210°
2026-04-18 10:12 44.98628 13.88950 31978 ft 472 kts 210°
2026-04-18 10:13 44.95735 13.86765 31420 ft 468 kts 210°
2026-04-18 10:13 44.92878 13.84608 30851 ft 464 kts 210°
2026-04-18 10:13 44.90038 13.82467 30333 ft 460 kts 210°
2026-04-18 10:13 44.87226 13.80348 29710 ft 456 kts 210°
2026-04-18 10:14 44.84438 13.78251 29137 ft 450 kts 210°
2026-04-18 10:14 44.81725 13.76213 28581 ft 445 kts 210°
2026-04-18 10:14 44.79005 13.74171 28032 ft 440 kts 210°
2026-04-18 10:14 44.76717 13.72455 27539 ft 437 kts 210°
2026-04-18 10:15 44.74369 13.70694 27062 ft 433 kts 210°
2026-04-18 10:15 44.71721 13.68711 26507 ft 429 kts 210°
2026-04-18 10:15 44.69103 13.66753 25973 ft 425 kts 210°
2026-04-18 10:15 44.66496 13.64806 25429 ft 422 kts 210°
2026-04-18 10:16 44.63915 13.62880 24897 ft 418 kts 210°
2026-04-18 10:16 44.61349 13.60967 24366 ft 415 kts 210°
2026-04-18 10:16 44.58834 13.59093 23828 ft 413 kts 210°
2026-04-18 10:16 44.56298 13.57205 23194 ft 411 kts 210°
2026-04-18 10:17 44.53780 13.55333 22611 ft 407 kts 210°
2026-04-18 10:17 44.51293 13.53486 22081 ft 402 kts 210°
2026-04-18 10:17 44.48827 13.51656 21525 ft 399 kts 210°
2026-04-18 10:17 44.46388 13.49847 21002 ft 395 kts 210°
2026-04-18 10:18 44.43985 13.48067 20473 ft 392 kts 210°
2026-04-18 10:18 44.41549 13.46273 19954 ft 389 kts 208°
2026-04-18 10:18 44.39154 13.44673 19681 ft 383 kts 206°
2026-04-18 10:18 44.36718 13.43158 19189 ft 381 kts 205°
2026-04-18 10:19 44.34293 13.41687 18707 ft 379 kts 205°
2026-04-18 10:19 44.31885 13.40227 18164 ft 377 kts 205°
2026-04-18 10:19 44.29482 13.38763 17596 ft 375 kts 205°
2026-04-18 10:19 44.27098 13.37302 17057 ft 373 kts 205°
2026-04-18 10:20 44.24725 13.35842 16526 ft 371 kts 205°
2026-04-18 10:20 44.22371 13.34391 16008 ft 369 kts 205°
2026-04-18 10:20 44.20032 13.32949 15493 ft 367 kts 205°
2026-04-18 10:20 44.17704 13.31513 14978 ft 365 kts 205°
2026-04-18 10:21 44.15382 13.30082 14453 ft 364 kts 205°
2026-04-18 10:21 44.13095 13.28674 13915 ft 363 kts 205°
2026-04-18 10:21 44.10787 13.27254 13340 ft 362 kts 205°
2026-04-18 10:21 44.08485 13.25839 12794 ft 360 kts 205°
2026-04-18 10:22 44.06205 13.24438 12262 ft 357 kts 205°
2026-04-18 10:22 44.03937 13.23046 11741 ft 355 kts 204°
2026-04-18 10:22 44.01679 13.21661 11228 ft 353 kts 204°
2026-04-18 10:22 43.99441 13.20290 10723 ft 351 kts 204°
2026-04-18 10:23 43.97263 13.18972 10543 ft 338 kts 201°
2026-04-18 10:23 43.95045 13.18361 10361 ft 325 kts 179°
2026-04-18 10:23 43.92856 13.18731 10226 ft 311 kts 166°
2026-04-18 10:23 43.90750 13.19359 9812 ft 309 kts 165°
2026-04-18 10:24 43.88662 13.20027 9456 ft 304 kts 164°
2026-04-18 10:24 43.86663 13.20664 9092 ft 293 kts 164°
2026-04-18 10:24 43.84713 13.21276 8736 ft 281 kts 164°
2026-04-18 10:24 43.82849 13.21851 8395 ft 268 kts 164°
2026-04-18 10:25 43.81056 13.22399 8054 ft 259 kts 164°
2026-04-18 10:25 43.79307 13.22932 7747 ft 256 kts 164°
2026-04-18 10:25 43.77570 13.23459 7452 ft 255 kts 164°
2026-04-18 10:25 43.75843 13.23982 7149 ft 254 kts 164°
2026-04-18 10:26 43.74703 13.24326 6960 ft 253 kts 164°
2026-04-18 10:26 43.72416 13.25015 6539 ft 252 kts 164°
2026-04-18 10:26 43.70702 13.25530 6215 ft 251 kts 164°
2026-04-18 10:26 43.69568 13.25871 5998 ft 251 kts 165°
2026-04-18 10:27 43.67862 13.26381 5700 ft 251 kts 165°
2026-04-18 10:27 43.66178 13.26880 5525 ft 242 kts 167°
2026-04-18 10:27 43.64511 13.26771 5329 ft 244 kts 199°
2026-04-18 10:27 43.63084 13.25480 5077 ft 247 kts 222°
2026-04-18 10:28 43.61876 13.23826 4838 ft 247 kts 225°
2026-04-18 10:28 43.60692 13.22151 4700 ft 239 kts 225°
2026-04-18 10:28 43.59573 13.20565 4578 ft 222 kts 226°
2026-04-18 10:28 43.58522 13.19081 4492 ft 213 kts 224°
2026-04-18 10:29 43.57473 13.17644 4375 ft 211 kts 224°
2026-04-18 10:29 43.56393 13.16235 4172 ft 215 kts 214°
2026-04-18 10:29 43.55027 13.15638 3896 ft 207 kts 172°
2026-04-18 10:29 43.53746 13.16334 3671 ft 196 kts 141°
2026-04-18 10:30 43.52741 13.17605 3404 ft 196 kts 132°
2026-04-18 10:30 43.51803 13.18937 3133 ft 190 kts 126°
2026-04-18 10:30 43.51337 13.20566 2887 ft 188 kts 92°
2026-04-18 10:30 43.51616 13.22317 2567 ft 188 kts 60°
2026-04-18 10:31 43.52457 13.23665 2354 ft 189 kts 47°
2026-04-18 10:31 43.53397 13.24961 2078 ft 191 kts 46°
2026-04-18 10:31 43.54329 13.26232 1805 ft 184 kts 45°
2026-04-18 10:31 43.55225 13.27457 1556 ft 175 kts 45°
2026-04-18 10:32 43.56055 13.28587 1329 ft 160 kts 45°
2026-04-18 10:32 43.56793 13.29598 1167 ft 140 kts 44°
2026-04-18 10:32 43.57459 13.30510 942 ft 131 kts 44°
2026-04-18 10:32 43.58087 13.31368 866 ft 129 kts 43°
2026-04-18 10:33 43.58752 13.32278 676 ft 136 kts 43°
2026-04-18 10:33 43.59420 13.33194 547 ft 137 kts 43°
2026-04-18 10:33 43.60107 13.34123 318 ft 137 kts 43°
2026-04-18 10:33 43.60764 13.35042 86 ft 132 kts 41°
2026-04-18 10:34 43.61303 13.35768 53 ft 96 kts 45°
2026-04-18 10:34 43.61582 13.36156 53 ft 33 kts 45°
2026-04-18 10:34 43.61686 13.36298 51 ft 29 kts 45°
2026-04-18 10:34 43.61784 13.36433 50 ft 29 kts 45°
2026-04-18 10:35 43.61916 13.36614 45 ft 32 kts 45°
2026-04-18 10:35 43.62073 13.36828 40 ft 35 kts 44°
2026-04-18 10:35 43.62147 13.36916 41 ft 10 kts 17°
2026-04-18 10:35 43.62217 13.36902 40 ft 14 kts 343°
2026-04-18 10:36 43.62235 13.36828 40 ft 10 kts 223°